| time (UTC) | temp F | wind direction | speed knots | gust knots | rain 1hr in | rain 24hr in | rain mn in | humidity % | barometer mb |
| 20260901150048 | 56 | 161 | 0.0 | 2.6 | 0.00 | 0.00 | 0.00 | 94 | 1008.8 |
| 20260901144645 | 56 | 198 | 0.0 | 0.0 | 0.00 | 0.00 | 0.00 | 94 | 1008.8 |
| 20260901143044 | 56 | 198 | 0.0 | 1.7 | 0.00 | 0.00 | 0.00 | 94 | 1008.7 |
| 20260901141552 | 55 | 198 | 0.0 | 3.5 | 0.00 | 0.00 | 0.00 | 94 | 1008.7 |
| 20260901140040 | 55 | 239 | 0.0 | 1.7 | 0.00 | 0.00 | 0.00 | 94 | 1008.7 |
| 20260901134535 | 54 | 240 | 0.0 | 1.7 | 0.00 | 0.00 | 0.00 | 94 | 1008.3 |
| 20260901133039 | 54 | 242 | 0.0 | 0.0 | 0.00 | 0.00 | 0.00 | 94 | 1008.3 |
| 20260901131534 | 54 | 242 | 0.0 | 1.7 | 0.00 | 0.00 | 0.00 | 94 | 1008.1 |
| 20260901130032 | 53 | 294 | 0.0 | 0.9 | 0.00 | 0.00 | 0.00 | 93 | 1008.2 |
| 20260901124534 | 53 | 294 | 0.0 | 0.0 | 0.00 | 0.00 | 0.00 | 93 | 1008.2 |
| 20260901123031 | 53 | 294 | 0.0 | 0.0 | 0.00 | 0.00 | 0.00 | 93 | 1008.2 |
| 20260901121535 | 54 | 294 | 0.0 | 0.0 | 0.00 | 0.00 | 0.00 | 93 | 1008.2 |
| 20260901120041 | 54 | 294 | 0.0 | 0.0 | 0.00 | 0.00 | 0.00 | 93 | 1008.2 |
| 20260901114528 | 54 | 294 | 0.0 | 0.0 | 0.00 | 0.00 | 0.00 | 94 | 1008.3 |
| 20260901113029 | 54 | 294 | 0.0 | 0.0 | 0.00 | 0.00 | 0.00 | 93 | 1008.4 |
| 20260901111527 | 54 | 294 | 0.0 | 0.0 | 0.00 | 0.00 | 0.00 | 93 | 1008.3 |
| 20260901110033 | 54 | 294 | 0.0 | 0.0 | 0.00 | 0.00 | 0.00 | 93 | 1008.5 |
| 20260901104531 | 54 | 294 | 0.0 | 0.0 | 0.00 | 0.00 | 0.00 | 93 | 1008.6 |
| 20260901103025 | 54 | 294 | 0.0 | 0.0 | 0.00 | 0.00 | 0.00 | 93 | 1008.5 |
| 20260901101525 | 54 | 294 | 0.0 | 0.0 | 0.00 | 0.00 | 0.00 | 93 | 1008.5 |
| 20260901100023 | 54 | 294 | 0.0 | 0.0 | 0.00 | 0.00 | 0.00 | 93 | 1008.5 |
| 20260901094522 | 54 | 294 | 0.0 | 0.0 | 0.00 | 0.00 | 0.00 | 92 | 1008.5 |
| 20260901093021 | 55 | 294 | 0.0 | 0.0 | 0.00 | 0.00 | 0.00 | 93 | 1008.4 |
| 20260901091523 | 55 | 294 | 0.0 | 0.0 | 0.00 | 0.00 | 0.00 | 92 | 1008.3 |
| 20260901090020 | 55 | 294 | 0.0 | 0.0 | 0.00 | 0.00 | 0.00 | 92 | 1008.4 |
| 20260901084519 | 55 | 294 | 0.0 | 0.0 | 0.00 | 0.00 | 0.00 | 92 | 1008.4 |
| 20260901083023 | 55 | 294 | 0.0 | 0.0 | 0.00 | 0.00 | 0.00 | 92 | 1008.5 |
| 20260901081518 | 55 | 294 | 0.0 | 0.0 | 0.00 | 0.00 | 0.00 | 92 | 1008.4 |
| 20260901080016 | 56 | 294 | 0.0 | 0.0 | 0.00 | 0.00 | 0.00 | 92 | 1008.2 |
| 20260901074514 | 56 | 294 | 0.0 | 0.0 | 0.00 | 0.00 | 0.00 | 92 | 1008.1 |
| 20260901073011 | 56 | 294 | 0.0 | 0.0 | 0.00 | 0.00 | 0.00 | 92 | 1008.2 |
| 20260901071510 | 57 | 294 | 0.0 | 0.0 | 0.00 | 0.00 | 0.00 | 92 | 1008.3 |
| 20260901070017 | 57 | 294 | 0.0 | 0.0 | 0.00 | 0.00 | 0.00 | 92 | 1008.3 |
| 20260901064507 | 57 | 294 | 0.0 | 0.0 | 0.00 | 0.00 | 0.00 | 92 | 1008.5 |
| 20260901063006 | 57 | 294 | 0.0 | 0.0 | 0.00 | 0.00 | 0.00 | 91 | 1008.5 |
| 20260901061508 | 57 | 294 | 0.0 | 0.0 | 0.00 | 0.00 | 0.00 | 91 | 1008.5 |
| 20260901060006 | 57 | 294 | 0.0 | 0.0 | 0.00 | 0.00 | 0.00 | 90 | 1008.5 |
| 20260901054506 | 57 | 294 | 0.0 | 0.0 | 0.00 | 0.00 | 0.00 | 90 | 1008.5 |
| 20260901053005 | 58 | 294 | 0.0 | 0.0 | 0.00 | 0.00 | 0.00 | 89 | 1008.5 |
| 20260901051505 | 58 | 294 | 0.0 | 0.0 | 0.00 | 0.00 | 0.00 | 88 | 1008.4 |
| 20260901050004 | 58 | 294 | 0.0 | 0.0 | 0.00 | 0.00 | 0.00 | 87 | 1008.4 |
| 20260901044505 | 59 | 294 | 0.0 | 0.0 | 0.00 | 0.00 | 0.00 | 86 | 1008.4 |
| 20260901043003 | 59 | 294 | 0.0 | 0.0 | 0.00 | 0.00 | 0.00 | 86 | 1008.4 |
| 20260901041502 | 60 | 294 | 0.0 | 0.0 | 0.00 | 0.00 | 0.00 | 84 | 1008.4 |
| 20260901040002 | 61 | 294 | 0.0 | 0.0 | 0.00 | 0.00 | 0.00 | 83 | 1008.3 |
| 20260901034501 | 62 | 294 | 0.0 | 0.0 | 0.00 | 0.00 | 0.00 | 81 | 1008.3 |
| 20260901033002 | 62 | 294 | 0.0 | 0.0 | 0.00 | 0.00 | 0.00 | 79 | 1008.2 |
| 20260901031600 | 63 | 294 | 0.0 | 0.0 | 0.00 | 0.00 | 0.00 | 78 | 1008.2 |
| 20260901030100 | 64 | 294 | 0.0 | 0.0 | 0.00 | 0.00 | 0.00 | 76 | 1008.3 |
| 20260901024559 | 65 | 294 | 0.0 | 0.0 | 0.00 | 0.00 | 0.00 | 74 | 1008.2 |
| 20260901023057 | 65 | 294 | 0.0 | 0.0 | 0.00 | 0.00 | 0.00 | 73 | 1008.3 |
| 20260901021557 | 66 | 294 | 0.0 | 0.9 | 0.00 | 0.00 | 0.00 | 71 | 1008.4 |
| 20260901020058 | 67 | 294 | 0.0 | 0.0 | 0.00 | 0.00 | 0.00 | 69 | 1008.5 |
| 20260901014554 | 67 | 294 | 0.0 | 2.6 | 0.00 | 0.00 | 0.00 | 66 | 1008.6 |
| 20260901013100 | 68 | 309 | 0.0 | 1.7 | 0.00 | 0.00 | 0.00 | 66 | 1008.6 |
| 20260901011553 | 68 | 339 | 0.0 | 2.6 | 0.00 | 0.00 | 0.00 | 64 | 1008.7 |
| 20260901010056 | 69 | 341 | 0.0 | 4.3 | 0.00 | 0.00 | 0.00 | 63 | 1008.7 |
| 20260901004554 | 69 | 348 | 0.9 | 5.2 | 0.00 | 0.00 | 0.00 | 63 | 1008.7 |
| 20260901003051 | 70 | 244 | 0.9 | 5.2 | 0.00 | 0.00 | 0.00 | 61 | 1008.9 |
| 20260901001549 | 71 | 228 | 0.0 | 3.5 | 0.00 | 0.00 | 0.00 | 59 | 1009.0 |
| 20260901000057 | 72 | 11 | 0.9 | 6.1 | 0.00 | 0.00 | 0.00 | 59 | 1009.1 |
| 20260831234547 | 72 | 37 | 1.7 | 7.0 | 0.00 | 0.00 | 0.00 | 59 | 1009.3 |
| 20260831233044 | 72 | 89 | 0.9 | 7.0 | 0.00 | 0.00 | 0.00 | 61 | 1009.6 |
| 20260831231547 | 72 | 265 | 0.9 | 4.3 | 0.00 | 0.00 | 0.00 | 60 | 1009.7 |
| 20260831230043 | 74 | 27 | 0.9 | 5.2 | 0.00 | 0.00 | 0.00 | 59 | 1009.7 |
| 20260831224540 | 73 | 10 | 1.7 | 7.0 | 0.00 | 0.00 | 0.00 | 59 | 1009.8 |
| 20260831223039 | 73 | 20 | 2.6 | 5.2 | 0.00 | 0.00 | 0.00 | 62 | 1010.1 |
| 20260831221537 | 73 | 331 | 0.9 | 6.1 | 0.00 | 0.00 | 0.00 | 64 | 1010.2 |
| 20260831220036 | 74 | 27 | 1.7 | 7.0 | 0.00 | 0.00 | 0.00 | 60 | 1010.3 |
| 20260831214533 | 73 | 41 | 1.7 | 6.1 | 0.00 | 0.00 | 0.00 | 63 | 1010.6 |
| 20260831213034 | 71 | 44 | 1.7 | 7.8 | 0.00 | 0.00 | 0.00 | 69 | 1010.7 |
| 20260831211533 | 73 | 103 | 0.9 | 4.3 | 0.00 | 0.00 | 0.00 | 66 | 1010.9 |
| 20260831210130 | 73 | 271 | 0.9 | 5.2 | 0.00 | 0.00 | 0.00 | 62 | 1011.1 |
| 20260831204534 | 74 | 123 | 0.9 | 6.1 | 0.00 | 0.00 | 0.00 | 63 | 1011.1 |
| 20260831203028 | 73 | 55 | 1.7 | 5.2 | 0.00 | 0.00 | 0.00 | 63 | 1011.3 |
| 20260831201524 | 72 | 85 | 1.7 | 7.0 | 0.00 | 0.00 | 0.00 | 62 | 1011.5 |
| 20260831200024 | 74 | 142 | 1.7 | 5.2 | 0.00 | 0.00 | 0.00 | 58 | 1011.8 |
| 20260831194519 | 74 | 19 | 0.0 | 5.2 | 0.00 | 0.00 | 0.00 | 55 | 1011.9 |
| 20260831193023 | 72 | 5 | 2.6 | 7.8 | 0.00 | 0.00 | 0.00 | 58 | 1012.2 |
| 20260831191515 | 72 | 13 | 1.7 | 3.5 | 0.00 | 0.00 | 0.00 | 55 | 1012.3 |
| 20260831190011 | 70 | 18 | 3.5 | 7.8 | 0.00 | 0.00 | 0.00 | 59 | 1012.7 |
| 20260831184510 | 70 | 348 | 0.9 | 8.7 | 0.00 | 0.00 | 0.00 | 62 | 1012.8 |
| 20260831183006 | 70 | 46 | 1.7 | 5.2 | 0.00 | 0.00 | 0.00 | 63 | 1013.0 |
| 20260831181503 | 68 | 5 | 4.3 | 7.8 | 0.00 | 0.00 | 0.00 | 63 | 1013.2 |
| 20260831180100 | 67 | 349 | 5.2 | 8.7 | 0.00 | 0.00 | 0.00 | 64 | 1013.3 |
| 20260831174556 | 65 | 351 | 2.6 | 10.4 | 0.00 | 0.00 | 0.00 | 68 | 1013.5 |
| 20260831173053 | 65 | 355 | 5.2 | 9.6 | 0.00 | 0.00 | 0.00 | 69 | 1013.6 |
| 20260831171549 | 64 | 360 | 0.9 | 10.4 | 0.00 | 0.00 | 0.00 | 71 | 1013.6 |
| 20260831170045 | 63 | 13 | 1.7 | 7.0 | 0.00 | 0.00 | 0.00 | 73 | 1013.7 |
| 20260831164541 | 61 | 92 | 1.7 | 4.3 | 0.00 | 0.00 | 0.00 | 77 | 1013.7 |
| 20260831163038 | 60 | 329 | 1.7 | 8.7 | 0.00 | 0.00 | 0.00 | 79 | 1013.7 |
| 20260831161535 | 58 | 17 | 0.9 | 4.3 | 0.00 | 0.00 | 0.00 | 82 | 1013.7 |
| 20260831160035 | 57 | 325 | 1.7 | 5.2 | 0.00 | 0.00 | 0.00 | 84 | 1014.0 |
| 20260831154527 | 56 | 342 | 2.6 | 4.3 | 0.00 | 0.00 | 0.00 | 86 | 1014.2 |
| 20260831153022 | 55 | 355 | 1.7 | 4.3 | 0.00 | 0.00 | 0.00 | 88 | 1014.1 |
| 20260831151522 | 54 | 61 | 0.0 | 4.3 | 0.00 | 0.00 | 0.00 | 88 | 1014.2 |